#timestamp,LO_Frequency,Hit,StdDev 
1668556815.1,286047000.4,N
1668556816.0,286047000.4,N
1668556835.8,286046999.9,N
1668556855.7,286047001.0,N
1668556875.5,286047001.1,N
1668556895.3,286047001.2,N
1668556915.2,286047001.1,N
1668556935.0,286046999.7,N
1668556935.9,286046999.7,N
1668556955.8,286047000.5,N
1668556975.6,286047002.8,N
1668556995.4,286046999.7,N
1668557015.3,286047001.8,N
1668557035.1,286047000.0,N
1668557055.8,286047002.7,N
1668557075.7,286047001.7,N
1668557095.5,286047003.2,N
1668557115.4,286047005.7,Y
1668557135.2,286047001.3,P
1668557155.0,286047002.0,P
1668557155.9,286047002.0,N
1668557175.8,286047002.0,N
1668557195.6,286047003.9,Y
1668557215.5,286047001.6,P
1668557235.3,286047002.4,P
1668557255.1,286047002.6,P
1668557275.9,286046998.3,Y
1668557295.7,286046995.6,P
1668557315.6,286046995.3,N
1668557335.4,286046996.2,N
1668557355.2,286046995.5,N
1668557375.1,286046997.8,N
1668557376.0,286046997.8,N
1668557395.8,286046997.7,N
1668557415.7,286046998.8,N
1668557435.5,286046999.5,N
1668557455.3,286046996.6,N
1668557475.2,286046997.8,N
1668557495.0,286046996.6,N
1668557495.9,286046996.6,N
1668557515.8,286046996.6,N
1668557535.6,286046998.1,N
1668557555.4,286046998.8,N
1668557575.3,286047000.7,N
1668557595.1,286047001.1,N
1668557615.8,286047000.6,N
1668557635.7,286046998.6,N
1668557655.5,286047000.7,N
1668557675.4,286047000.9,N
1668557695.2,286046998.0,N
1668557715.0,286046997.2,N
1668557715.9,286046997.2,N
1668557735.8,286046998.0,N
1668557755.6,286046995.0,N
1668557775.4,286046997.6,N
1668557795.3,286046996.2,N
1668557815.1,286046994.8,N
1668557835.9,286046996.4,N
1668557855.7,286046996.4,N
1668557875.5,286046994.2,Y
1668557895.4,286046995.4,P
1668557915.2,286046995.3,P
1668557935.0,286046997.2,N
1668557935.9,286046997.2,N
1668557955.8,286046999.6,N
1668557975.6,286046998.2,N
1668557995.5,286047001.1,N
1668558015.3,286047000.8,N
1668558035.1,286047000.4,N
1668558055.9,286047001.9,N
1668558075.7,286047002.0,N
1668558095.5,286047002.6,N
1668558115.4,286047000.6,N
1668558135.2,286047000.0,N
1668558155.1,286047000.3,N
1668558156.0,286047000.3,N
1668558175.8,286046999.7,N
1668558195.6,286047000.0,N
1668558215.5,286046998.1,N
1668558235.3,286047000.4,N
1668558255.1,286046999.7,N
1668558275.9,286046999.7,N
1668558295.7,286047003.5,N
1668558315.6,286047003.9,N
1668558335.4,286047001.8,N
1668558355.2,286047001.3,N
1668558375.1,286047001.3,N
1668558376.0,286047001.3,N
1668558395.8,286047002.3,N
1668558415.7,286047004.4,N
1668558435.5,286047002.3,N
1668558455.3,286046999.7,N
1668558475.2,286047000.2,N
1668558495.9,286047002.7,N
1668558515.7,286046998.5,N
1668558535.6,286046999.1,N
1668558555.4,286046999.3,N
1668558575.3,286047000.9,N
1668558595.1,286046998.8,N
1668558596.0,286046998.8,N
1668558615.8,286046998.0,N
1668558635.7,286046995.8,N
1668558655.5,286046997.3,N
1668558675.4,286046997.9,N
1668558695.2,286046999.6,N
1668558715.0,286046998.1,N
1668558716.0,286046998.1,N
1668558735.8,286047000.2,N
1668558755.6,286047001.0,N
1668558775.5,286046998.6,N
1668558795.3,286047000.8,N
1668558815.1,286047002.5,N
1668558835.9,286047002.8,N
1668558855.7,286047001.2,N
1668558875.6,286046998.8,N
1668558895.4,286046998.1,N
1668558915.2,286047000.0,N
1668558935.1,286046999.0,N
1668558936.0,286046999.0,N
1668558955.8,286046999.1,N
1668558975.7,286047000.7,N
1668558995.5,286046999.7,N
1668559015.3,286047002.7,N
1668559035.2,286047000.0,N
1668559055.0,286047002.3,N
1668559055.9,286047002.3,N
1668559075.8,286047002.5,N
1668559095.6,286047002.8,N
1668559115.4,286047002.7,N
1668559135.3,286047000.0,N
1668559155.1,286047002.5,N
1668559175.8,286047000.9,N
1668559195.7,286047000.1,N
1668559215.5,286047000.7,N
1668559235.4,286047000.3,N
1668559255.2,286047000.8,N
1668559275.0,286047000.9,N
1668559275.9,286047000.9,N
1668559295.8,286047000.9,N
1668559315.6,286047000.7,N
1668559335.5,286047000.0,N
1668559355.3,286047002.4,N
1668559375.1,286047000.0,N
1668559395.9,286047002.7,N
1668559415.7,286047002.8,N
1668559435.5,286047002.0,N
1668559455.4,286047004.4,Y
1668559475.2,286046999.9,P
1668559495.1,286047004.4,P
1668559496.0,286047004.4,N
1668559515.8,286047004.0,N
1668559535.6,286047004.2,N
1668559555.5,286047002.1,N
1668559575.3,286046999.7,N
1668559595.1,286046999.8,N
1668559615.9,286047000.2,N
1668559635.7,286046998.1,N
1668559655.6,286047000.3,N
1668559675.4,286047000.4,N
1668559695.2,286046999.7,N
1668559715.1,286047000.6,N
1668559716.0,286047000.6,N
1668559735.8,286047000.1,N
1668559755.7,286047000.9,N
1668559775.5,286046998.3,N
1668559795.3,286046998.1,N
1668559815.2,286046998.3,N
1668559835.0,286047000.7,N
1668559835.9,286047000.7,N
1668559855.8,286046997.0,N
1668559875.6,286046996.7,N
1668559895.4,286046999.2,N
1668559915.3,286046999.1,N
1668559935.1,286046997.0,N
1668559955.8,286046999.4,N
1668559975.7,286046998.1,N
1668559995.5,286047000.0,N
1668560015.4,286047002.8,N
1668560035.2,286046999.7,N
1668560055.0,286047001.1,N
1668560055.9,286047001.1,N
1668560075.8,286046998.7,N
1668560095.6,286047001.2,N
1668560115.4,286047000.8,N
1668560135.3,286047000.4,N
1668560155.1,286047000.0,N
1668560175.9,286047002.8,N
1668560195.7,286047000.7,N
1668560215.5,286046998.7,N
1668560235.4,286046997.0,N
1668560255.2,286046996.6,N
1668560275.0,286046998.7,N
1668560275.9,286046998.7,N
1668560295.8,286046999.5,N
1668560315.6,286046997.0,N
1668560335.5,286046996.6,N
1668560355.3,286046996.7,N
1668560375.1,286046995.3,N
1668560395.9,286046997.9,N
